Columbia, MO

9:53 PM CST on January 18, 2017 (GMT -0600)
Columbia Regional

Weather History for KCOU - October, 2012

Change the Weather History Date:

Friday, October 12, 2012

  Actual Average Record
Temperature  
Mean Temperature 56 °F 57 °F  
Max Temperature 62 °F 69 °F 94 °F (1899)
Min Temperature 49 °F 46 °F 26 °F (1909)
Degree Days  
Heating Degree Days 9 8  
Month to date heating degree days 145 85  
Since 1 July heating degree days 194 153  
Cooling Degree Days 0 1  
Month to date cooling degree days 1 14  
Year to date cooling degree days 1865 1241  
Growing Degree Days 5 (Base 50)    
Moisture  
Dew Point 44 °F    
Average Humidity 67    
Maximum Humidity 86    
Minimum Humidity 47    
Precipitation  
Precipitation 0.00 in 0.11 in 3.74 in (1969)
Month to date precipitation 0.27 1.40  
Year to date precipitation 25.34 35.02  
Snow  
Snow 0.00 in 0.00 in T in (1946)
Month to date snowfall 0.0 0.0  
Since 1 July snowfall 0.0 0.0  
Since 1 September snowfall 0.0 0.0  
Snow Depth 0.00 in    
Sea Level Pressure  
Sea Level Pressure 30.25 in    
Wind  
Wind Speed 11 mph (East)    
Max Wind Speed 20 mph    
Max Gust Speed 25 mph    
Visibility 10 miles    
Events      
T = Trace of Precipitation, MM = Missing Value Source: NWS Daily Summary

Daily Weather History Graph

Daily Weather History Graph

Search for Another Location

Airport or City:

Trip Planner

Search our weather history database for the weather conditions in past years. The results will help you decide how hot, cold, wet, or windy it might be!

Date:

Astronomy

Oct. 12, 2012 Rise Set
Actual Time 7:15 AM CDT 6:34 PM CDT
Civil Twilight 6:49 AM CDT 7:00 PM CDT
Nautical Twilight 6:18 AM CDT 7:31 PM CDT
Astronomical Twilight 5:47 AM CDT 8:02 PM CDT
Moon 4:00 AM CDT (10/12) 4:42 PM CDT (10/12)
Length of Visible Light 12h 11m
Length of Day
11h 18m
Waning Crescent, 10% of the Moon is Illuminated
Oct 12
Waning Crescent
Oct 15
New
Oct 21
First Quarter
Oct 29
Full
Nov 6
Last Quarter

Hourly Weather History & Observations

Time (CDT) Temp. Dew Point Humidity Pressure Visibility Wind Dir Wind Speed Gust Speed Precip Events Conditions
12:06 AM 53.6 °F 50.0 °F 88% 30.21 in 10.0 mi North 4.6 mph - N/A   Overcast
12:54 AM 55.0 °F 51.1 °F 86% 30.22 in 10.0 mi NNE 5.8 mph - N/A   Overcast
1:54 AM 55.0 °F 51.1 °F 86% 30.22 in 10.0 mi North 8.1 mph - N/A   Overcast
2:54 AM 55.4 °F 42.8 °F 63% 30.24 in 10.0 mi NNE 12.7 mph - N/A   Overcast
3:54 AM 53.1 °F 39.9 °F 61% 30.25 in 10.0 mi NNE 12.7 mph - N/A   Overcast
4:54 AM 52.0 °F 39.0 °F 61% 30.25 in 10.0 mi NE 11.5 mph - N/A   Overcast
5:54 AM 51.1 °F 39.0 °F 63% 30.27 in 10.0 mi NE 13.8 mph 18.4 mph N/A   Overcast
6:54 AM 50.0 °F 39.0 °F 66% 30.28 in 10.0 mi NE 13.8 mph - N/A   Overcast
7:54 AM 48.9 °F 37.0 °F 64% 30.31 in 10.0 mi ENE 13.8 mph - N/A   Mostly Cloudy
8:54 AM 51.8 °F 35.6 °F 54% 30.32 in 10.0 mi ENE 18.4 mph 23.0 mph N/A   Overcast
9:54 AM 53.1 °F 35.1 °F 50% 30.35 in 10.0 mi ENE 9.2 mph - N/A   Mostly Cloudy
10:54 AM 55.9 °F 36.0 °F 47% 30.35 in 10.0 mi East 13.8 mph 20.7 mph N/A   Clear
11:54 AM 57.0 °F 37.0 °F 47% 30.35 in 10.0 mi ENE 4.6 mph - N/A   Mostly Cloudy
12:20 PM 57.2 °F 37.4 °F 48% 30.34 in 10.0 mi East 11.5 mph - N/A   Overcast
12:54 PM 59.0 °F 39.9 °F 49% 30.32 in 10.0 mi East 9.2 mph - N/A   Overcast
1:54 PM 61.0 °F 43.0 °F 52% 30.29 in 10.0 mi East 11.5 mph - N/A   Overcast
2:33 PM 60.8 °F 42.8 °F 52% 30.28 in 10.0 mi ESE 9.2 mph - N/A   Overcast
2:54 PM 61.0 °F 44.1 °F 54% 30.27 in 10.0 mi East 9.2 mph - N/A   Overcast
3:54 PM 61.0 °F 45.0 °F 56% 30.25 in 10.0 mi East 10.4 mph - N/A   Overcast
4:33 PM 62.6 °F 46.4 °F 55% 30.23 in 10.0 mi SE 12.7 mph - N/A   Overcast
4:54 PM 62.6 °F 46.4 °F 55% 30.23 in 10.0 mi ESE 11.5 mph - N/A   Overcast
5:54 PM 59.0 °F 46.0 °F 62% 30.22 in 10.0 mi ESE 8.1 mph - N/A   Clear
6:54 PM 57.9 °F 46.9 °F 67% 30.21 in 10.0 mi SE 6.9 mph - N/A   Clear
7:54 PM 55.9 °F 46.9 °F 72% 30.20 in 10.0 mi SE 6.9 mph - N/A   Clear
8:54 PM 55.4 °F 46.4 °F 72% 30.20 in 10.0 mi SE 9.2 mph - N/A   Clear
9:54 PM 55.0 °F 48.0 °F 77% 30.19 in 10.0 mi SE 9.2 mph - N/A   Clear
10:54 PM 55.0 °F 48.9 °F 80% 30.21 in 10.0 mi SSE 9.2 mph - N/A   Partly Cloudy
11:08 PM 55.4 °F 48.2 °F 77% 30.20 in 10.0 mi SSE 10.4 mph - N/A   Mostly Cloudy
11:54 PM 55.9 °F 51.1 °F 84% 30.16 in 10.0 mi SSE 10.4 mph - N/A   Overcast